WXForecasting.com
 MARQUETTE COUNTY, MI  -  Lakeshore Flood Advisory Lakeshore Flood Advisory     Lake Effect Snow Advisory Lake Effect Snow Advisory  
Harvey, MI - Weather Station Data
 
Daily Summary for November 24, 2014 Units:  English    Metric   Both
« Previous Day
Next Day »
Daily Weekly Monthly Yearly Custom
  Current: High: Low: Average:
Temperature: 29.8 °F 41.5 °F 29.5 °F 35.7 °F
Dew Point: 27.0 °F 40.0 °F 26.0 °F 32.9 °F
Humidity: 88% 93% 80% 90%
Wind Speed: 8.0mph 9.0mph 0.0mph 1.8mph
Wind Gust: 12.0mph 12.0mph - -
WindWNW - - West
Pressure: 29.31 in 29.31 in 28.94 in -
Precipitation: 0.28 in      
Historical Graphs
 
 
Tabular Data for November 24, 2014
Time Temp Dew Point Pressure Wind Wind Speed Wind Gust RH Rain Rate/Hour
00:07 38.2 °F 36.0 °F 29.19 in Calm     92% 0.03 in
00:22 38.4 °F 36.0 °F 29.18 in Calm     92% 0.04 in
00:37 38.5 °F 36.0 °F 29.17 in Calm     92% 0.04 in
00:52 38.3 °F 36.0 °F 29.16 in Calm     92% 0.04 in
01:07 38.0 °F 36.0 °F 29.14 in Calm     92% 0.05 in
01:22 37.7 °F 36.0 °F 29.12 in Calm     92% 0.03 in
01:37 37.4 °F 35.0 °F 29.11 in Calm     92% 0.03 in
01:52 37.3 °F 35.0 °F 29.09 in Calm     92% 0.04 in
02:07 37.3 °F 35.0 °F 29.08 in Calm     92% 0.02 in
02:22 37.3 °F 35.0 °F 29.07 in Calm     92% 0.03 in
02:38 37.4 °F 35.0 °F 29.06 in Calm     92% 0.03 in
02:53 37.5 °F 35.0 °F 29.06 in Calm     92% 0.03 in
03:08 37.4 °F 35.0 °F 29.05 in Calm     92% 0.04 in
03:23 37.3 °F 35.0 °F 29.04 in Calm     92% 0.03 in
03:38 37.1 °F 35.0 °F 29.03 in Calm     92% 0.04 in
03:53 37.1 °F 35.0 °F 29.02 in Calm     92% 0.04 in
04:08 37.1 °F 35.0 °F 29.00 in Calm     92% 0.04 in
04:23 37.0 °F 35.0 °F 28.99 in Calm     92% 0.05 in
04:38 36.8 °F 35.0 °F 28.98 in Calm     92% 0.04 in
04:53 36.8 °F 35.0 °F 28.98 in Calm     92% 0.04 in
05:08 36.8 °F 35.0 °F 28.97 in Calm     92% 0.04 in
05:23 36.9 °F 35.0 °F 28.96 in Calm     92% 0.03 in
05:53 37.0 °F 35.0 °F 28.95 in Calm     92% 0.03 in
06:08 37.2 °F 35.0 °F 28.95 in Calm   1.0 mph 92% 0.02 in
06:23 37.6 °F 36.0 °F 28.95 in Calm     92% 0.03 in
06:38 38.0 °F 36.0 °F 28.94 in Calm     92% 0.03 in
06:53 38.2 °F 36.0 °F 28.94 in Calm     92% 0.02 in
07:08 38.6 °F 37.0 °F 28.94 in Calm     92% 0.03 in
07:23 39.2 °F 37.0 °F 28.94 in Calm     93% 0.03 in
07:38 39.5 °F 37.0 °F 28.94 in Calm   1.0 mph 92% 0.02 in
07:53 40.7 °F 39.0 °F 28.94 in NNW 3.0 mph 4.0 mph 93% 0.03 in
08:08 41.5 °F 40.0 °F 28.94 in Calm   4.0 mph 93% 0.03 in
08:23 41.2 °F 39.0 °F 28.95 in NW 2.0 mph 5.0 mph 93% 0.02 in
08:38 41.0 °F 39.0 °F 28.95 in NW 8.0 mph 10.0 mph 92% 0.02 in
08:53 40.6 °F 39.0 °F 28.96 in Calm   9.0 mph 93% 0.01 in
09:08 40.2 °F 38.0 °F 28.97 in NW 5.0 mph 8.0 mph 92% 0.00 in
09:23 39.6 °F 38.0 °F 28.98 in NW 1.0 mph 5.0 mph 92% 0.00 in
09:38 39.0 °F 37.0 °F 28.99 in NW 3.0 mph 11.0 mph 92% 0.00 in
09:53 38.7 °F 37.0 °F 29.00 in NW 3.0 mph 5.0 mph 92% 0.00 in
10:08 38.2 °F 36.0 °F 29.01 in NNW 3.0 mph 9.0 mph 92% 0.00 in
10:24 37.7 °F 36.0 °F 29.01 in NW 4.0 mph 10.0 mph 92% 0.00 in
10:39 37.4 °F 35.0 °F 29.02 in West 6.0 mph 9.0 mph 92% 0.00 in
10:54 37.0 °F 35.0 °F 29.04 in NW 1.0 mph 9.0 mph 92% 0.01 in
11:09 36.6 °F 34.0 °F 29.04 in NNW 3.0 mph 5.0 mph 91% 0.01 in
11:24 36.1 °F 34.0 °F 29.05 in WNW 2.0 mph 4.0 mph 91% 0.01 in
11:39 35.8 °F 34.0 °F 29.05 in WNW 2.0 mph 6.0 mph 91% 0.01 in
11:54 35.7 °F 33.0 °F 29.05 in NW 1.0 mph 5.0 mph 90% 0.00 in
12:09 35.7 °F 33.0 °F 29.05 in NNW 2.0 mph 8.0 mph 89% 0.00 in
12:24 35.3 °F 32.0 °F 29.05 in NNW 3.0 mph 8.0 mph 88% 0.00 in
12:39 35.3 °F 32.0 °F 29.06 in NW 4.0 mph 8.0 mph 87% 0.00 in
12:54 34.6 °F 31.0 °F 29.07 in NNE 2.0 mph 9.0 mph 86% 0.00 in
13:09 34.4 °F 31.0 °F 29.08 in West 4.0 mph 6.0 mph 86% 0.00 in
13:24 34.1 °F 30.0 °F 29.09 in NE 3.0 mph 9.0 mph 85% 0.00 in
13:39 33.8 °F 30.0 °F 29.10 in NW 2.0 mph 8.0 mph 85% 0.00 in
13:54 33.7 °F 29.0 °F 29.11 in East 1.0 mph 3.0 mph 84% 0.00 in
14:09 33.3 °F 28.0 °F 29.12 in NNW 4.0 mph 9.0 mph 82% 0.00 in
14:24 33.2 °F 28.0 °F 29.13 in North 1.0 mph 8.0 mph 82% 0.00 in
14:39 32.7 °F 27.0 °F 29.15 in NW 5.0 mph 10.0 mph 80% 0.00 in
14:54 32.3 °F 27.0 °F 29.15 in North 9.0 mph 10.0 mph 81% 0.00 in
15:09 32.1 °F 27.0 °F 29.16 in NE 4.0 mph 6.0 mph 82% 0.00 in
15:24 31.7 °F 27.0 °F 29.17 in NW 4.0 mph 9.0 mph 82% 0.00 in
15:39 31.3 °F 26.0 °F 29.18 in NNW 3.0 mph 9.0 mph 82% 0.00 in
15:54 31.1 °F 27.0 °F 29.19 in NNW 3.0 mph 9.0 mph 83% 0.00 in
16:09 30.8 °F 27.0 °F 29.21 in NNW 4.0 mph 6.0 mph 84% 0.00 in
16:24 30.3 °F 27.0 °F 29.22 in Calm   9.0 mph 86% 0.00 in
16:39 30.0 °F 26.0 °F 29.23 in West 2.0 mph 9.0 mph 86% 0.00 in
16:55 29.7 °F 26.0 °F 29.24 in NNW 2.0 mph 8.0 mph 87% 0.00 in
17:10 29.5 °F 26.0 °F 29.24 in NW 3.0 mph 6.0 mph 87% 0.00 in
17:25 29.5 °F 26.0 °F 29.25 in WNW 3.0 mph 10.0 mph 87% 0.00 in
17:40 29.6 °F 26.0 °F 29.26 in NW 1.0 mph 8.0 mph 87% 0.00 in
17:55 29.7 °F 26.0 °F 29.27 in NW 3.0 mph 8.0 mph 87% 0.00 in
18:10 29.8 °F 26.0 °F 29.28 in WNW 1.0 mph 8.0 mph 87% 0.00 in
18:25 29.9 °F 27.0 °F 29.29 in WNW 2.0 mph 11.0 mph 87% 0.00 in
18:40 29.9 °F 27.0 °F 29.30 in NNW 3.0 mph 8.0 mph 88% 0.00 in
18:55 29.8 °F 27.0 °F 29.31 in WNW 8.0 mph 12.0 mph 88% 0.00 in
Compliments of Weather Underground

3 Visitors online right now
Max visitors today: 19 at 04:49 am EST
This month: 28 at 11-13-2014 10:32 pm EST
This year: 33 at 09-23-2014 08:38 pm EDT
All time: 104 at 01-04-2012 03:34 am EST
See Who is Online